Weather History for Manistique, MI

Change the Weather History Date:

Wednesday, November 6, 2013

  Actual Average Record
Temperature  
Mean Temperature 38 °F -  
Max Temperature 41 °F 45 °F 62 °F (2008)
Min Temperature 34 °F 29 °F 6 °F (1991)
Degree Days  
Heating Degree Days 28    
Moisture  
Dew Point 36 °F    
Average Humidity 92    
Maximum Humidity 99    
Minimum Humidity 76    
Precipitation  
Precipitation 0.07 in - - ()
Sea Level Pressure  
Sea Level Pressure 29.82 in    
Wind  
Wind Speed 10 mph (NNW)    
Max Wind Speed 21 mph    
Max Gust Speed 28 mph    
Visibility 8 miles    
Events Rain    
Averages and records for this station are not official NWS values.
T = Trace of Precipitation, MM = Missing Value Source: NWS Daily Summary

Daily Weather History Graph

Daily Weather History Graph

Search for Another Location

Airport:

Trip Planner

Search our weather history database for the weather conditions in past years. The results will help you decide how hot, cold, wet, or windy it might be!

Date:

Astronomy

Nov. 06, 2013 Rise Set
Actual Time 7:32 AM EST 5:23 PM EST
Civil Twilight 7:01 AM EST 5:55 PM EST
Nautical Twilight 6:25 AM EST 6:30 PM EST
Astronomical Twilight 5:50 AM EST 7:05 PM EST
Moon 10:51 AM EST (11/6) 8:22 PM EST (11/6)
Length of Visible Light 10h 54m
Length of Day
9h 50m
Waxing Crescent, 13% of the Moon is Illuminated
Nov 6
Waxing Crescent
Nov 10
First Quarter
Nov 17
Full
Nov 25
Last Quarter
Dec 2
New

Hourly Weather History & Observations

Time (EST) Temp. Windchill Dew Point Humidity Pressure Visibility Wind Dir Wind Speed Gust Speed Precip Events Conditions
12:15 AM 41.7 °F 35.6 °F 40.3 °F 95% 29.96 in 10.0 mi NE 10.4 mph - N/A Rain Light Rain
12:35 AM 41.7 °F 36.1 °F 40.1 °F 94% 29.95 in 10.0 mi North 9.2 mph - N/A Rain Light Rain
12:54 AM 41.9 °F 37.5 °F 39.9 °F 93% 29.95 in 7.0 mi ENE 6.9 mph - N/A   Drizzle
1:15 AM 41.9 °F 36.3 °F 40.1 °F 93% 29.93 in 10.0 mi NNE 9.2 mph - N/A Rain Rain
1:35 AM 41.5 °F 38.6 °F 40.6 °F 97% 29.92 in 7.0 mi NNE 4.6 mph - N/A Rain Light Rain
1:54 AM 41.4 °F 36.8 °F 40.8 °F 98% 29.91 in 7.0 mi NNE 6.9 mph - N/A Rain Light Rain
2:15 AM 41.4 °F 38.4 °F 40.6 °F 97% 29.90 in 7.0 mi North 4.6 mph - N/A Rain Rain
2:35 AM 41.4 °F 34.3 °F 40.6 °F 97% 29.88 in 7.0 mi North 12.7 mph - N/A Rain Rain
2:54 AM 41.4 °F 36.8 °F 41.0 °F 99% 29.87 in 7.0 mi North 6.9 mph - N/A Rain Rain
3:15 AM 41.4 °F 38.4 °F 40.8 °F 98% 29.85 in 5.0 mi NNE 4.6 mph - N/A   Overcast
3:34 AM 41.4 °F 38.4 °F 41.0 °F 99% 29.84 in 7.0 mi NE 4.6 mph - N/A Rain Rain
3:55 AM 41.4 °F 34.7 °F 41.0 °F 99% 29.82 in 5.0 mi NE 11.5 mph - N/A Rain Light Rain
4:15 AM 41.9 °F 40.0 °F 41.4 °F 98% 29.81 in 7.0 mi NNE 3.5 mph - N/A Rain Light Rain
4:35 AM 41.9 °F 38.2 °F 41.4 °F 98% 29.79 in 7.0 mi NNE 5.8 mph - N/A Rain Rain
4:55 AM 41.9 °F - 41.5 °F 99% 29.79 in 5.0 mi Calm Calm - N/A Rain Rain
5:14 AM 41.9 °F 37.5 °F 41.5 °F 99% 29.78 in 4.0 mi North 6.9 mph - N/A Rain Rain
5:35 AM 41.4 °F 35.7 °F 41.0 °F 99% 29.78 in 7.0 mi North 9.2 mph - N/A Rain Rain
5:55 AM 41.4 °F 38.4 °F 40.8 °F 98% 29.77 in 7.0 mi NNW 4.6 mph - N/A Rain Light Rain
6:14 AM 41.2 °F 36.0 °F 40.6 °F 98% 29.76 in 7.0 mi North 8.1 mph - N/A Rain Light Rain
6:35 AM 41.0 °F 35.2 °F 40.3 °F 97% 29.75 in 7.0 mi North 9.2 mph - N/A Rain Rain
6:55 AM 40.5 °F 33.2 °F 39.9 °F 98% 29.74 in 7.0 mi North 12.7 mph - N/A Rain Light Rain
7:14 AM 40.1 °F 33.6 °F 39.4 °F 97% 29.73 in 10.0 mi North 10.4 mph 17.3 mph N/A Rain Light Rain
7:35 AM 40.1 °F 33.6 °F 39.2 °F 97% 29.74 in 7.0 mi North 10.4 mph 18.4 mph N/A Rain Light Rain
7:54 AM 39.6 °F 32.1 °F 38.8 °F 97% 29.73 in 7.0 mi North 12.7 mph 17.3 mph N/A Rain Rain
8:15 AM 39.4 °F 33.2 °F 38.5 °F 97% 29.73 in 10.0 mi NNW 9.2 mph - N/A Rain Light Rain
8:35 AM 39.4 °F 31.1 °F 38.5 °F 97% 29.73 in 10.0 mi North 15.0 mph 19.6 mph N/A Rain Light Rain
8:55 AM 39.2 °F 32.0 °F 38.3 °F 97% 29.73 in 10.0 mi North 11.5 mph 18.4 mph N/A Rain Rain
9:15 AM 39.2 °F 31.2 °F 37.9 °F 95% 29.73 in 5.0 mi NNW 13.8 mph 20.7 mph N/A Rain Light Rain
9:34 AM 39.0 °F 30.6 °F 37.9 °F 96% 29.72 in 7.0 mi NNW 15.0 mph 21.9 mph N/A Rain Rain
9:55 AM 38.8 °F 31.2 °F 37.8 °F 96% 29.72 in 5.0 mi NNW 12.7 mph 24.2 mph 0.01 in Rain Light Rain
10:14 AM 38.8 °F 30.8 °F 37.8 °F 96% 29.71 in 2.5 mi North 13.8 mph 24.2 mph 0.01 in   Overcast
10:35 AM 39.2 °F 31.6 °F 37.8 °F 95% 29.72 in 7.0 mi North 12.7 mph 20.7 mph 0.01 in Rain Light Rain
10:54 AM 39.2 °F 31.2 °F 37.8 °F 95% 29.71 in 2.5 mi North 13.8 mph 23.0 mph 0.02 in   Overcast
11:15 AM 39.2 °F 31.2 °F 37.8 °F 95% 29.73 in 5.0 mi NNW 13.8 mph 19.6 mph N/A Rain Light Rain
11:35 AM 38.8 °F 29.4 °F 37.6 °F 95% 29.71 in 3.0 mi NNW 18.4 mph 25.3 mph 0.01 in   Overcast
11:54 AM 38.7 °F 28.6 °F 37.4 °F 95% 29.72 in 5.0 mi NNW 20.7 mph - 0.01 in Rain Light Rain
12:15 PM 38.3 °F 29.0 °F 36.9 °F 95% 29.71 in 3.0 mi NNW 17.3 mph 24.2 mph 0.01 in   Overcast
12:35 PM 38.3 °F 29.7 °F 36.9 °F 95% 29.71 in 4.0 mi NNW 15.0 mph 27.6 mph 0.02 in   Overcast
12:54 PM 38.3 °F 30.5 °F 36.9 °F 95% 29.70 in 5.0 mi NNW 12.7 mph 25.3 mph 0.03 in   Overcast
1:15 PM 38.7 °F 29.8 °F 37.4 °F 95% 29.70 in 10.0 mi NNW 16.1 mph 24.2 mph N/A Rain Light Rain
1:34 PM 39.2 °F 30.8 °F 37.4 °F 93% 29.71 in 10.0 mi NNW 15.0 mph 24.2 mph N/A Rain Light Rain
1:55 PM 39.2 °F 30.5 °F 37.4 °F 93% 29.72 in 10.0 mi NNW 16.1 mph 20.7 mph N/A Rain Light Rain
2:15 PM 39.4 °F 30.7 °F 37.8 °F 94% 29.73 in 10.0 mi NNW 16.1 mph 23.0 mph N/A Rain Light Rain
2:34 PM 39.2 °F 31.6 °F 37.4 °F 93% 29.74 in 10.0 mi NNW 12.7 mph 26.5 mph N/A   Overcast
2:55 PM 39.2 °F 31.6 °F 37.6 °F 94% 29.75 in 10.0 mi NW 12.7 mph 20.7 mph N/A   Overcast
3:14 PM 39.0 °F 32.3 °F 37.4 °F 94% 29.76 in 10.0 mi NW 10.4 mph 18.4 mph N/A   Overcast
3:35 PM 39.2 °F 32.0 °F 37.4 °F 93% 29.78 in 10.0 mi NW 11.5 mph 19.6 mph N/A   Overcast
3:55 PM 38.3 °F 29.7 °F 35.8 °F 91% 29.79 in 10.0 mi NW 15.0 mph 23.0 mph N/A   Overcast
4:14 PM 38.3 °F 30.1 °F 35.1 °F 88% 29.81 in 10.0 mi NW 13.8 mph 20.7 mph N/A   Overcast
4:35 PM 37.8 °F 29.0 °F 34.7 °F 89% 29.81 in 10.0 mi NW 15.0 mph 23.0 mph N/A   Overcast
4:55 PM 37.6 °F 30.0 °F 34.3 °F 88% 29.83 in 10.0 mi NW 11.5 mph 21.9 mph N/A   Overcast
5:14 PM 37.4 °F 29.8 °F 34.0 °F 87% 29.83 in 10.0 mi NW 11.5 mph 21.9 mph N/A   Overcast
5:35 PM 37.4 °F 28.2 °F 32.5 °F 83% 29.85 in 10.0 mi NW 16.1 mph 23.0 mph N/A   Overcast
5:54 PM 37.0 °F 28.1 °F 32.2 °F 83% 29.87 in 10.0 mi NW 15.0 mph 25.3 mph N/A   Overcast
6:15 PM 36.1 °F 30.6 °F 33.1 °F 89% 29.88 in 10.0 mi NNW 6.9 mph 20.7 mph N/A   Light Drizzle
6:35 PM 35.6 °F 29.9 °F 33.3 °F 91% 29.89 in 10.0 mi NW 6.9 mph - N/A   Overcast
6:54 PM 35.6 °F 29.9 °F 33.4 °F 92% 29.90 in 10.0 mi WNW 6.9 mph - N/A   Overcast
7:15 PM 35.6 °F 26.2 °F 33.1 °F 91% 29.91 in 7.0 mi NW 15.0 mph 20.7 mph N/A   Drizzle
7:35 PM 35.1 °F 27.4 °F 32.9 °F 92% 29.92 in 10.0 mi WNW 10.4 mph - N/A   Overcast
7:54 PM 35.1 °F 25.9 °F 31.6 °F 87% 29.92 in 10.0 mi WNW 13.8 mph 17.3 mph N/A   Overcast
8:15 PM 34.7 °F 25.9 °F 30.0 °F 83% 29.93 in 10.0 mi WNW 12.7 mph 18.4 mph N/A   Overcast
8:35 PM 34.5 °F 25.7 °F 29.3 °F 81% 29.93 in 10.0 mi WNW 12.7 mph 19.6 mph N/A   Overcast
8:54 PM 34.3 °F 25.9 °F 28.9 °F 81% 29.94 in 10.0 mi WNW 11.5 mph 17.3 mph N/A   Overcast
9:15 PM 34.3 °F 25.5 °F 28.2 °F 78% 29.94 in 10.0 mi WNW 12.7 mph 17.3 mph N/A   Overcast
9:34 PM 34.3 °F 25.9 °F 28.0 °F 78% 29.94 in 10.0 mi WNW 11.5 mph - N/A   Overcast
9:55 PM 34.7 °F 27.5 °F 27.7 °F 76% 29.95 in 10.0 mi WNW 9.2 mph 19.6 mph N/A   Overcast
10:15 PM 34.2 °F 26.2 °F 27.9 °F 78% 29.95 in 10.0 mi WNW 10.4 mph - N/A   Overcast
10:34 PM 34.2 °F 25.7 °F 27.9 °F 78% 29.96 in 10.0 mi West 11.5 mph 16.1 mph N/A   Overcast
10:55 PM 34.2 °F 26.8 °F 27.5 °F 77% 29.97 in 10.0 mi West 9.2 mph - N/A   Overcast
11:15 PM 34.0 °F 26.6 °F 27.7 °F 78% 29.97 in 10.0 mi WNW 9.2 mph - N/A   Overcast
11:34 PM 34.0 °F 28.0 °F 27.5 °F 77% 29.98 in 10.0 mi West 6.9 mph - N/A   Overcast
11:55 PM 34.2 °F 26.2 °F 27.5 °F 77% 29.97 in 10.0 mi West 10.4 mph 16.1 mph N/A   Overcast